Regional Weather Roundup
Issued by NWS

Home | Current Version | Previous Version | Text Only | Print | Product List | Glossary Off
Versions: 1 2 3 4 5 6 7 8 9 10 11 12 13 14 15 16 17 18 19 20 21 22 23 24 25 26 27 28 29 30 31 32 33 34 35 36 37 38 39 40 41 42 43 44 45 46 47 48 49 50

000
ASUS45 KBOU 230807
RWRCO

WEATHER ROUNDUP FOR COLORADO
NATIONAL WEATHER SERVICE DENVER/BOULDER CO
200 AM MDT TUE SEP 23 2014

NOTE: "FAIR" INDICATES FEW OR NO CLOUDS BELOW 12000 FEET WITH NO
SIGNIFICANT WEATHER AND/OR OBSTRUCTIONS TO VISIBILITY.

COZ001>005-013-030-031-230900-
...NORTHWEST COLORADO...

CITY           SKY/WX    TMP DP  RH WIND       PRES   REMARKS
CRAIG          CLOUDY    52  48  86 SE5       30.24R
HAYDEN         CLOUDY    54  45  71 E6        30.26R
MEEKER         CLOUDY    54  49  83 E3        30.26S
MOUNT WERNER   NOT AVBL
STEAMBOAT SPGS CLOUDY    51  49  93 CALM      30.27S
WALDEN         MOCLDY    46  43  87 SE5       30.31F
$$

COZ006>008-011-230900-
...WEST CENTRAL VALLEYS...

CITY           SKY/WX    TMP DP  RH WIND       PRES   REMARKS
GRAND JUNCTION CLOUDY    60  53  77 E5        30.16R
MONTROSE       MOCLDY    59  49  69 SE9       30.25S
EAGLE          CLOUDY    54  52  94 NW3       30.30S
RIFLE          CLOUDY    58  52  80 CALM      30.22S
DELTA          CLOUDY    62  54  73 E5        30.21S
NUCLA          PTCLDY    55  45  67 SE8       30.29R
$$

COZ017>023-064>068-230900-
...SOUTHWEST COLORADO...

CITY           SKY/WX    TMP DP  RH WIND       PRES   REMARKS
DURANGO        CLEAR     49  43  80 N7        30.31S
CORTEZ         CLEAR     49  46  90 NE3       30.27R
PAGOSA SPRINGS CLEAR     48  47  97 CALM      30.38S
TELLURIDE      NOT AVBL
WOLF CREEK PAS CLEAR     37  37 100 SW18G24   30.59S
$$

COZ009-010-012-014-032>034-037-058>063-230900-
...CENTRAL COLORADO...

CITY           SKY/WX    TMP DP  RH WIND       PRES   REMARKS
ASPEN          CLOUDY    50  44  80 S6        30.34S
BUENA VISTA    CLEAR     48  41  75 E3        30.33S
COPPER MTN     PTCLDY    43  34  70 W10G20    30.55F
BERTHOUD PASS  CLOUDY    34  32  93 NW26G41   30.54S WCI  21
COTTONWOOD PAS MOCLDY    52  37  58 N5        30.43S
GUNNISON       CLOUDY    48  43  81 CALM      30.39R
KREMMLING      CLOUDY    54  45  71 CALM      30.32S
LEADVILLE      PTCLDY    46  37  71 NW8       30.43S
MONARCH PASS   FOG       39  37  93 W28G35    30.65R VSB<1/4
SALIDA         NOT AVBL
SUNLIGHT       CLOUDY    45  43  93 CALM      30.51S
WILKERSON PASS NOT AVBL
$$

COZ069>075-230900-
...SAN LUIS VALLEY/SANGRE DE CRISTO MOUNTAINS...

CITY           SKY/WX    TMP DP  RH WIND       PRES   REMARKS
ALAMOSA        CLEAR     42  39  89 CALM      30.34R
LA VETA PASS   CLOUDY    46  45  93 S7        30.47R
SAGUACHE       CLEAR     50  45  81 CALM      30.36S
$$

COZ035-036-038>040-230900-
...NORTHERN COLORADO FRONT RANGE...

CITY           SKY/WX    TMP DP  RH WIND       PRES   REMARKS
DENVER INTL AP PTCLDY    57  51  80 S12       30.14S
DMNS CITY PARK   N/A     60  50  71 S3        30.14S
AURORA         MOCLDY    57  50  75 SE10      30.17S
FRONT RANGE AP CLOUDY    55  52  88 S8        30.16S
ERIE MUNI ARPT NOT AVBL
BOULDER MUN AP CLOUDY    61  45  55 NE5       30.13S
CENTENNIAL     MOCLDY    58  49  72 S9        30.17F
BROOMFIELD     CLOUDY    61  50  67 SW13      30.16S
FORT COLLINS   PTCLDY    57  46  67 CALM      30.14R
LONGMONT       CLOUDY    58  48  69 N3        30.14S
$$

COZ041-046-047-076>085-087-088-230900-
...PIKES PEAK/PALMER DIVIDE AND SOUTHERN FOOTHILLS...

CITY           SKY/WX    TMP DP  RH WIND       PRES   REMARKS
COLO. SPRINGS  CLEAR     56  47  71 NW7       30.21R
A. F. ACADEMY  CLEAR     49  46  90 N7        30.22S
ELLICOTT       NOT AVBL
FALCON         CLEAR     53  42  65 N5        30.24F
FORT CARSON    CLEAR     55  48  76 NW8       30.18R
LIMON          CLEAR     51  50  96 N3        30.15F
MONUMENT HILL  MOCLDY    46  43  87 CALM      30.24S
TRINIDAD       CLEAR     63  54  72 W16       30.17S
$$

COZ042>045-048>051-090-091-230900-
...NORTHEAST COLORADO...

CITY           SKY/WX    TMP DP  RH WIND       PRES   REMARKS
GREELEY ARPT   MOCLDY    57  46  67 SW3       30.12S
AKRON          PTCLDY    57  55  93 E7        30.09R
BURLINGTON     PTCLDY    59  57  93 SE8       30.08F
WRAY           CLOUDY    57  56  95 CALM      30.07F
STERLING       PTCLDY    61  59  94 SW3       30.06S
HOLYOKE        CLOUDY    59  55  88 W5        30.07S
FORT MORGAN    MOCLDY    56  53  92 NW6       30.10S
$$

COZ086-089-092>099-230900-
...SOUTHEAST COLORADO...

CITY           SKY/WX    TMP DP  RH WIND       PRES   REMARKS
PUEBLO         PTCLDY    60  51  72 SW5       30.12R
LA JUNTA       MOCLDY    65  58  78 SW12      30.07F
LAMAR          PTCLDY    63  57  81 SE6       30.04F
SPRINGFIELD      N/A     62  58  86 S15       30.10F
$$


USA.gov is the U.S. government's official web portal to all federal, state and local government web resources and services.